When you browse on this site, cookies collect data to enhance your experience and personalize the content and advertising you see.
Visit our Privacy Policy to learn more. By continuing to use the site, you agree to this use of cookies and data.
  • Em Portugal
  • Lista de países
  • Para 7 dias
  • Temperatura da água
  • Mapas de satélite
  • Mapa do tempo
  • Widgets de tempo
  • user-avatar
    Iniciar Sessão

    Previsão horária em Fedoseevka

    Hoje, 21 Fevereiro, Quinta-feira

    Tempo Temperatura Precipitação Vento Pressão Humidade
    00:00 -2°C° 0.3 mm 6 m/s 734 mmHg 92%
    01:00 -2°C° 0.3 mm 6 m/s 734 mmHg 92%
    02:00 -1°C° 0 mm 5 m/s 733 mmHg 92%
    03:00 -2°C° 0.3 mm 5 m/s 733 mmHg 90%
    04:00 -4°C° 0.3 mm 6 m/s 733 mmHg 88%
    05:00 -5°C° 0.3 mm 6 m/s 733 mmHg 85%
    06:00 -6°C° 0.1 mm 6 m/s 733 mmHg 85%
    07:00 -6°C° 0.1 mm 6 m/s 733 mmHg 85%
    08:00 -8°C° 0 mm 6 m/s 734 mmHg 86%
    09:00 -6°C° 0.1 mm 6 m/s 734 mmHg 85%
    10:00 -7°C° 0.1 mm 7 m/s 734 mmHg 84%
    11:00 -7°C° 0.1 mm 7 m/s 735 mmHg 83%
    12:00 -7°C° 0.1 mm 7 m/s 735 mmHg 82%
    13:00 -7°C° 0.1 mm 7 m/s 735 mmHg 81%
    14:00 -6°C° 0 mm 5 m/s 735 mmHg 80%
    15:00 -8°C° 0.1 mm 6 m/s 736 mmHg 79%
    16:00 -9°C° 0.1 mm 6 m/s 736 mmHg 79%
    17:00 -9°C° 0.1 mm 6 m/s 737 mmHg 78%
    18:00 -10°C° 0 mm 6 m/s 737 mmHg 79%
    19:00 -10°C° 0 mm 6 m/s 737 mmHg 81%
    20:00 -11°C° 0 mm 6 m/s 738 mmHg 82%
    21:00 -11°C° 0 mm 6 m/s 738 mmHg 83%
    22:00 -12°C° 0 mm 6 m/s 738 mmHg 83%
    23:00 -12°C° 0 mm 6 m/s 739 mmHg 83%

    Amanhã, 22 Fevereiro, Sexta-feira

    Tempo Temperatura Precipitação Vento Pressão Humidade
    00:00 -12°C° 0 mm 6 m/s 739 mmHg 84%
    01:00 -14°C° 0 mm 6 m/s 739 mmHg 84%
    02:00 -14°C° 0 mm 6 m/s 740 mmHg 84%
    03:00 -14°C° 0 mm 6 m/s 740 mmHg 84%
    04:00 -15°C° 0 mm 6 m/s 740 mmHg 85%
    05:00 -15°C° 0 mm 6 m/s 740 mmHg 85%
    06:00 -15°C° 0.1 mm 6 m/s 741 mmHg 86%
    07:00 -14°C° 0.1 mm 6 m/s 741 mmHg 86%
    08:00 -14°C° 0.1 mm 6 m/s 742 mmHg 86%
    09:00 -14°C° 0.1 mm 6 m/s 742 mmHg 85%
    10:00 -14°C° 0.1 mm 7 m/s 743 mmHg 84%
    11:00 -13°C° 0.1 mm 7 m/s 743 mmHg 83%
    12:00 -13°C° 0.1 mm 7 m/s 744 mmHg 83%
    13:00 -13°C° 0.1 mm 7 m/s 744 mmHg 83%
    14:00 -13°C° 0.1 mm 7 m/s 745 mmHg 84%
    15:00 -12°C° 0.1 mm 6 m/s 746 mmHg 84%
    16:00 -12°C° 0.1 mm 6 m/s 746 mmHg 85%
    17:00 -14°C° 0.1 mm 6 m/s 747 mmHg 85%
    18:00 -14°C° 0 mm 6 m/s 748 mmHg 85%
    19:00 -14°C° 0 mm 6 m/s 749 mmHg 85%
    20:00 -15°C° 0 mm 6 m/s 750 mmHg 86%
    21:00 -14°C° 0 mm 5 m/s 750 mmHg 86%
    22:00 -14°C° 0 mm 5 m/s 751 mmHg 86%
    23:00 -15°C° 0 mm 5 m/s 751 mmHg 86%

    Depois de amanhã, 23 Fevereiro, Sábado

    Tempo Temperatura Precipitação Vento Pressão Humidade
    00:00 -15°C° 0 mm 5 m/s 752 mmHg 86%
    01:00 -17°C° 0 mm 5 m/s 753 mmHg 87%
    02:00 -17°C° 0 mm 5 m/s 753 mmHg 88%
    03:00 -16°C° 0 mm 4 m/s 754 mmHg 88%
    04:00 -17°C° 0 mm 4 m/s 754 mmHg 89%
    05:00 -17°C° 0 mm 4 m/s 755 mmHg 90%
    06:00 -17°C° 0 mm 4 m/s 755 mmHg 91%
    07:00 -17°C° 0 mm 4 m/s 756 mmHg 91%
    08:00 -17°C° 0 mm 4 m/s 757 mmHg 92%
    09:00 -15°C° 0 mm 3 m/s 757 mmHg 90%
    10:00 -14°C° 0 mm 3 m/s 757 mmHg 89%
    11:00 -13°C° 0 mm 3 m/s 758 mmHg 87%
    12:00 -13°C° 0 mm 3 m/s 757 mmHg 86%
    13:00 -12°C° 0 mm 3 m/s 757 mmHg 85%
    14:00 -10°C° 0 mm 3 m/s 757 mmHg 85%
    15:00 -12°C° 0 mm 3 m/s 757 mmHg 85%
    16:00 -12°C° 0 mm 2 m/s 757 mmHg 86%
    17:00 -13°C° 0 mm 2 m/s 757 mmHg 87%
    18:00 -12°C° 0 mm 2 m/s 757 mmHg 87%
    19:00 -12°C° 0 mm 2 m/s 757 mmHg 88%
    20:00 -10°C° 0 mm 2 m/s 757 mmHg 88%
    21:00 -12°C° 0 mm 3 m/s 756 mmHg 87%
    22:00 -10°C° 0 mm 3 m/s 756 mmHg 87%
    23:00 -10°C° 0 mm 3 m/s 756 mmHg 86%

    24 Fevereiro, Domingo

    Tempo Temperatura Precipitação Vento Pressão Humidade
    00:00 -10°C° 0.1 mm 4 m/s 755 mmHg 88%
    01:00 -10°C° 0.1 mm 4 m/s 755 mmHg 89%
    02:00 -11°C° 0.1 mm 5 m/s 754 mmHg 91%
    03:00 -10°C° 0.1 mm 5 m/s 754 mmHg 91%
    04:00 -10°C° 0.1 mm 5 m/s 753 mmHg 91%
    05:00 -10°C° 0.1 mm 5 m/s 753 mmHg 91%
    06:00 -10°C° 0.1 mm 5 m/s 752 mmHg 92%
    07:00 -8°C° 0.1 mm 5 m/s 752 mmHg 92%
    08:00 -8°C° 0.1 mm 5 m/s 752 mmHg 93%
    09:00 -7°C° 0.2 mm 5 m/s 752 mmHg 93%
    10:00 -6°C° 0.2 mm 5 m/s 752 mmHg 93%
    11:00 -5°C° 0.2 mm 5 m/s 752 mmHg 92%
    12:00 -5°C° 0 mm 5 m/s 752 mmHg 92%
    13:00 -4°C° 0 mm 5 m/s 752 mmHg 92%
    14:00 -2°C° 0 mm 5 m/s 752 mmHg 92%
    15:00 -2°C° 0 mm 4 m/s 752 mmHg 92%
    16:00 -2°C° 0 mm 4 m/s 752 mmHg 92%
    17:00 -2°C° 0 mm 4 m/s 752 mmHg 93%
    18:00 -2°C° 0 mm 4 m/s 752 mmHg 93%
    19:00 -2°C° 0 mm 4 m/s 752 mmHg 94%
    20:00 -2°C° 0 mm 4 m/s 752 mmHg 94%
    21:00 -2°C° 0 mm 4 m/s 752 mmHg 95%
    22:00 -2°C° 0 mm 4 m/s 752 mmHg 95%
    23:00 -2°C° 0 mm 4 m/s 751 mmHg 95%

    25 Fevereiro, Segunda-feira

    Tempo Temperatura Precipitação Vento Pressão Humidade
    00:00 -2°C° 0 mm 4 m/s 751 mmHg 95%
    01:00 -2°C° 0 mm 4 m/s 751 mmHg 95%
    02:00 -2°C° 0 mm 4 m/s 750 mmHg 95%
    03:00 -2°C° 0.2 mm 5 m/s 750 mmHg 95%
    04:00 -2°C° 0.2 mm 5 m/s 749 mmHg 95%
    05:00 -2°C° 0.2 mm 5 m/s 749 mmHg 94%
    06:00 -2°C° 0.3 mm 5 m/s 749 mmHg 94%
    07:00 -1°C° 0.3 mm 5 m/s 748 mmHg 93%
    08:00 -1°C° 0.3 mm 5 m/s 748 mmHg 93%
    09:00 -1°C° 0 mm 5 m/s 747 mmHg 95%
    10:00 -1°C° 0 mm 5 m/s 747 mmHg 96%
    11:00 -1°C° 0 mm 5 m/s 747 mmHg 98%
    12:00 -1°C° 0 mm 5 m/s 746 mmHg 97%
    13:00 -1°C° 0 mm 5 m/s 746 mmHg 97%
    14:00 -1°C° 0 mm 5 m/s 746 mmHg 97%
    15:00 -1°C° 0 mm 5 m/s 746 mmHg 94%
    16:00 -1°C° 0 mm 5 m/s 745 mmHg 91%
    17:00 -1°C° 0 mm 5 m/s 745 mmHg 88%
    18:00 -2°C° 0 mm 5 m/s 745 mmHg 88%
    19:00 -2°C° 0 mm 5 m/s 745 mmHg 89%
    20:00 -4°C° 0 mm 5 m/s 744 mmHg 89%
    21:00 -4°C° 0 mm 6 m/s 744 mmHg 89%
    22:00 -4°C° 0 mm 6 m/s 743 mmHg 88%
    23:00 -4°C° 0 mm 6 m/s 743 mmHg 88%

    26 Fevereiro, Terça-feira

    Tempo Temperatura Precipitação Vento Pressão Humidade
    00:00 -3°C° 0.2 mm 6 m/s 742 mmHg 89%
    01:00 -3°C° 0.2 mm 6 m/s 742 mmHg 89%
    02:00 -3°C° 0.2 mm 6 m/s 741 mmHg 90%
    03:00 -3°C° 0.3 mm 6 m/s 741 mmHg 89%
    04:00 -3°C° 0.3 mm 6 m/s 740 mmHg 89%
    05:00 -3°C° 0.3 mm 6 m/s 740 mmHg 89%
    06:00 -3°C° 0 mm 6 m/s 740 mmHg 88%
    07:00 -3°C° 0 mm 6 m/s 740 mmHg 88%
    08:00 -3°C° 0 mm 6 m/s 740 mmHg 88%
    09:00 -3°C° 0 mm 6 m/s 740 mmHg 87%
    10:00 -3°C° 0 mm 6 m/s 739 mmHg 87%
    11:00 -3°C° 0 mm 6 m/s 739 mmHg 86%
    12:00 -3°C° 0.1 mm 6 m/s 739 mmHg 86%
    13:00 -2°C° 0.1 mm 5 m/s 738 mmHg 85%
    14:00 -2°C° 0.1 mm 5 m/s 737 mmHg 84%
    15:00 -2°C° 0 mm 5 m/s 737 mmHg 85%
    16:00 -2°C° 0 mm 4 m/s 737 mmHg 86%
    17:00 -3°C° 0 mm 4 m/s 736 mmHg 87%
    18:00 -2°C° 0.1 mm 3 m/s 736 mmHg 89%
    19:00 -2°C° 0.1 mm 3 m/s 736 mmHg 90%
    20:00 -4°C° 0.1 mm 3 m/s 735 mmHg 91%
    21:00 -4°C° 0 mm 3 m/s 735 mmHg 91%
    22:00 -4°C° 0 mm 4 m/s 735 mmHg 92%
    23:00 -5°C° 0 mm 4 m/s 735 mmHg 92%
    Mostrar mais